Total_Precipitation_Accumulation
0.65 0.77 1.01 0.99 0.83 0.82 0.87 0.89 0.82 0.77 0.70 0.72 0.71 0.69 0.63 0.55 0.50 0.49 0.48 0.47 0.48 0.55 0.63 0.73 0.76 0.75 0.83 0.92 1.02 1.09 1.12 1.20 1.35 1.57 1.72 1.73 1.75 1.79 1.95 2.03 1.99 1.54 1.46
0.37 0.52 0.79 0.86 0.74 0.78 0.78 0.79 0.77 0.71 0.67 0.65 0.70 0.76 0.71 0.64 0.55 0.52 0.50 0.50 0.55 0.60 0.62 0.64 0.71 0.69 0.74 0.83 0.95 1.01 1.07 1.23 1.65 1.97 2.12 2.03 2.02 2.01 2.07 2.02 1.98 1.57 1.41
0.26 0.31 0.45 0.68 0.69 0.73 0.66 0.67 0.70 0.65 0.62 0.60 0.63 0.69 0.66 0.63 0.54 0.50 0.52 0.55 0.62 0.62 0.58 0.66 0.71 0.68 0.73 0.83 0.92 0.94 1.10 1.40 2.00 2.60 2.72 2.24 1.86 2.04 2.09 2.01 1.79 1.42 1.24
0.22 0.22 0.25 0.48 0.58 0.62 0.58 0.60 0.65 0.62 0.54 0.54 0.55 0.58 0.56 0.58 0.54 0.50 0.52 0.55 0.59 0.57 0.60 0.70 0.70 0.73 0.72 0.76 0.86 1.05 1.29 1.52 2.06 2.52 2.57 1.87 1.47 1.54 1.75 1.58 1.40 1.23 1.03
0.24 0.20 0.26 0.38 0.42 0.49 0.49 0.51 0.56 0.59 0.55 0.50 0.47 0.53 0.54 0.53 0.53 0.52 0.55 0.57 0.59 0.60 0.60 0.63 0.73 0.80 0.78 0.74 0.85 1.12 1.45 1.76 2.07 2.23 1.86 2.05 1.93 1.57 1.45 1.30 1.26 1.04 0.83
0.24 0.19 0.25 0.35 0.34 0.37 0.40 0.43 0.48 0.51 0.52 0.50 0.50 0.54 0.60 0.63 0.65 0.57 0.52 0.57 0.63 0.67 0.69 0.70 0.78 0.82 0.76 0.73 0.84 1.13 1.46 1.87 1.96 1.44 1.14 1.49 1.48 1.40 1.31 1.25 1.14 0.96 0.79
0.27 0.21 0.25 0.39 0.36 0.34 0.39 0.43 0.46 0.47 0.49 0.48 0.51 0.53 0.61 0.67 0.66 0.61 0.60 0.61 0.63 0.68 0.70 0.74 0.76 0.79 0.79 0.82 0.86 1.08 1.49 1.86 1.70 1.13 0.94 1.19 1.12 1.17 1.25 1.26 1.18 1.00 0.81
0.35 0.25 0.28 0.43 0.47 0.42 0.43 0.46 0.49 0.47 0.49 0.50 0.50 0.53 0.58 0.63 0.64 0.66 0.68 0.71 0.65 0.68 0.71 0.72 0.72 0.70 0.72 0.85 0.96 1.06 1.40 1.52 1.23 1.02 0.91 0.97 0.81 1.08 1.22 1.14 1.08 0.96 0.85
0.63 0.50 0.42 0.44 0.47 0.47 0.54 0.57 0.53 0.53 0.53 0.51 0.54 0.57 0.57 0.60 0.62 0.62 0.74 0.78 0.73 0.73 0.74 0.76 0.75 0.73 0.76 0.89 1.00 1.14 1.39 1.59 1.37 1.24 0.99 0.93 0.77 1.08 1.31 1.13 0.98 0.87 0.87
1.23 1.02 0.77 0.58 0.60 0.57 0.61 0.62 0.59 0.50 0.50 0.54 0.58 0.58 0.62 0.71 0.75 0.83 0.84 0.81 0.84 0.92 0.94 0.95 0.91 0.84 0.95 1.05 1.15 1.27 1.44 1.43 1.33 1.52 1.26 0.88 0.88 1.19 1.40 1.43 1.23 1.03 0.96
1.61 1.42 1.27 1.03 0.79 0.82 0.77 0.64 0.73 0.67 0.65 0.75 0.92 0.90 1.00 1.30 1.26 1.37 1.14 1.04 1.13 1.31 1.38 1.38 1.34 1.27 1.24 1.21 1.37 1.54 1.46 1.39 1.61 1.78 1.45 1.05 1.15 1.53 1.67 1.72 1.56 1.43 1.32
1.65 1.46 1.44 1.38 1.09 1.00 0.94 1.12 1.39 1.24 1.25 1.32 1.56 1.43 1.68 1.83 1.73 1.28 1.34 1.48 1.59 1.92 2.06 2.07 2.08 1.89 1.68 1.56 1.70 1.73 1.52 1.56 1.72 1.56 1.32 1.19 1.33 1.69 1.96 2.00 1.82 1.61 1.55
1.85 1.71 1.44 1.55 1.41 1.35 1.47 1.53 1.68 1.78 1.78 1.76 1.84 1.86 2.07 1.91 1.65 1.57 1.86 2.17 2.31 2.45 2.63 2.68 2.61 2.22 2.20 2.38 2.37 2.14 2.03 1.89 1.92 1.65 1.33 1.38 1.51 1.82 2.11 2.18 1.99 1.84 1.70
2.13 2.02 1.89 1.87 1.87 1.83 1.84 1.75 1.64 1.49 1.53 1.65 1.81 1.83 2.03 2.11 2.14 2.13 2.27 2.38 2.55 2.86 3.21 3.14 3.14 2.93 2.97 2.82 2.61 2.57 2.39 2.09 2.23 2.27 1.80 1.65 1.74 2.09 2.27 2.28 2.13 2.00 1.97
2.83 2.68 2.67 2.73 2.52 2.27 2.17 1.84 1.50 1.40 1.30 1.39 1.50 1.61 1.65 1.94 2.18 2.24 2.11 2.12 2.11 2.32 2.73 3.23 3.21 3.38 3.40 3.09 2.66 2.47 2.50 2.36 2.32 2.27 1.91 1.96 2.14 2.20 2.20 2.19 2.15 2.09 2.10
3.82 3.63 3.43 3.48 3.02 2.64 2.37 1.99 1.72 1.47 1.44 1.37 1.31 1.34 1.53 1.76 2.01 1.99 1.95 2.12 2.17 2.12 2.28 2.70 2.89 3.23 3.24 2.92 2.45 2.24 2.22 2.27 2.16 2.15 1.89 1.91 2.04 1.92 1.93 2.17 2.38 2.43 2.35
4.92 4.53 3.93 3.66 3.32 3.02 2.73 2.23 1.85 1.67 1.41 1.39 1.38 1.31 1.35 1.49 1.72 1.71 1.79 1.79 1.86 1.82 1.88 2.06 2.31 2.58 2.57 2.46 2.38 2.31 2.24 2.14 1.97 1.96 2.01 1.94 1.69 1.75 1.84 1.97 2.17 2.31 2.46
5.72 5.13 4.40 3.70 3.70 3.53 3.20 2.53 2.04 1.73 1.57 1.48 1.40 1.27 1.20 1.23 1.21 1.31 1.35 1.34 1.35 1.25 1.37 1.66 1.75 1.96 2.21 2.33 2.44 2.28 2.20 2.24 2.03 1.98 1.95 1.94 1.90 1.64 1.88 1.92 1.92 1.98 2.26
5.88 5.68 5.05 4.84 4.60 3.93 3.17 2.55 2.12 1.83 1.66 1.48 1.39 1.30 1.23 1.13 1.08 1.14 1.21 1.30 1.08 1.05 1.12 1.07 1.41 1.60 1.85 1.98 1.75 1.88 1.80 1.86 1.78 1.58 1.59 1.47 1.65 1.64 1.74 1.73 1.78 1.76 1.98
4.82 4.73 4.67 4.77 4.29 3.67 3.03 2.52 2.20 1.93 1.63 1.43 1.34 1.34 1.26 1.19 1.14 1.23 1.09 1.10 0.98 1.12 1.25 1.35 1.58 1.52 1.49 1.59 1.39 1.61 1.51 1.40 1.44 1.37 1.25 1.26 1.32 1.22 1.42 1.58 1.66 1.43 1.66
3.25 3.36 3.67 3.88 3.59 3.10 2.67 2.15 1.93 1.83 1.65 1.47 1.33 1.24 1.25 1.18 1.30 1.37 1.12 1.36 1.21 1.18 1.24 1.26 1.38 1.38 1.27 1.25 1.60 1.78 1.44 1.13 1.12 1.01 0.99 1.13 1.20 1.23 1.44 1.67 1.69 1.63 1.44
2.33 2.65 3.03 3.27 3.11 2.57 2.32 2.09 1.94 1.84 1.71 1.66 1.51 1.43 1.26 1.22 1.26 1.16 1.34 1.21 1.23 1.32 1.35 1.40 1.48 1.47 1.31 1.26 1.57 1.90 1.66 1.62 1.47 0.83 0.93 1.06 1.16 1.36 1.43 1.42 1.55 1.72 1.47
2.05 2.20 2.26 2.52 2.71 2.45 2.31 2.22 2.10 1.99 1.79 1.83 1.72 1.55 1.24 1.14 1.17 1.20 1.20 1.20 1.37 1.18 1.40 1.55 1.51 1.56 1.52 1.37 1.39 1.65 1.69 1.66 1.46 1.14 0.93 0.92 1.09 1.39 1.43 1.49 1.40 1.51 1.61
1.43 1.71 1.96 2.21 2.39 2.32 2.19 1.98 1.82 1.64 1.53 1.51 1.53 1.54 1.42 1.30 1.14 1.13 1.14 1.26 1.40 1.21 1.47 1.20 1.26 1.49 1.58 1.43 1.36 1.24 1.27 1.43 1.54 1.48 1.24 1.02 1.04 1.18 1.27 1.19 1.21 1.39 1.47
0.98 1.37 1.79 2.13 2.36 2.26 1.98 1.80 1.79 1.68 1.63 1.56 1.47 1.62 1.51 1.45 1.25 1.09 1.15 1.25 1.30 1.22 1.28 1.28 1.52 1.43 1.40 1.38 1.39 1.39 1.41 1.31 1.14 1.25 1.35 1.32 1.23 0.99 0.92 0.97 1.10 1.26 1.29
0.79 1.02 1.30 1.63 1.91 1.95 1.80 1.71 1.74 1.76 1.73 1.60 1.40 1.37 1.27 1.28 1.25 1.20 1.26 1.28 1.22 1.16 1.20 1.22 1.34 1.36 1.42 1.48 1.36 1.25 1.32 1.27 1.18 1.24 1.11 1.10 1.18 0.91 0.80 0.83 0.94 1.11 1.18